User: anonymous   Login
Location: Sperry Observatory
(40.6664°N, 74.3236°W)
Time: 15:35:56
(UTC-05:00)
Language:

FO-29 - Orbit

View from above orbital plane
View from above orbital plane
View from above satellite
View from above satellite

Ground track
Ground track

The orbit data is extracted from the following two-line orbital elements,

1 24278U 96046B   17057.76337617 -.00000033  00000-0  60921-5 0  9998
2 24278  98.5794 315.6284 0349309 263.4480  92.6789 13.53074818 13949
Epoch (UTC): 26 February 2017 18:19:15
Eccentricity: 0.0349309
inclination: 98.5794°
perigee height: 801 km
apogee height: 1321 km
right ascension of ascending node: 315.6284°
argument of perigee: 263.4480°
revolutions per day: 13.53074818
mean anomaly at epoch: 92.6789°
orbit number at epoch: 1394

The dashed part of the orbit path shows where the satellite is in the earth's shadow,  

DLR